WBANNO,USDM_WEEK,LONGITUDE,LATITUDE,SMVWC_5_CM_MEAN,SMANOM_5_CM_MEAN,SMPERC_5_CM_30COUNTS,SMPERC_5_CM_70COUNTS,SMVWC_10_CM_MEAN,SMANOM_10_CM_MEAN,SMPERC_10_CM_30COUNTS,SMPERC_10_CM_70COUNTS,SMVWC_20_CM_MEAN,SMANOM_20_CM_MEAN,SMPERC_20_CM_30COUNTS,SMPERC_20_CM_70COUNTS,SMVWC_50_CM_MEAN,SMANOM_50_CM_MEAN,SMPERC_50_CM_30COUNTS,SMPERC_50_CM_70COUNTS,SMVWC_100_CM_MEAN,SMANOM_100_CM_MEAN,SMPERC_100_CM_30COUNTS,SMPERC_100_CM_70COUNTS,SMVWC_TOP_CM_MEAN,SMANOM_TOP_CM_MEAN,SMPERC_TOP_CM_30COUNTS,SMPERC_TOP_CM_70COUNTS,SMVWC_COLUMN_CM_MEAN,SMANOM_COLUMN_CM_MEAN,SMPERC_COLUMN_CM_30COUNTS,SMPERC_COLUMN_CM_70COUNTS
53132,20100210,-110.51,31.59,,,,,,,,,,,,,,,,,,,,,,,,,,,,
53132,20100211,-110.51,31.59,,,,,,,,,,,,,,,,,,,,,,,,,,,,
53132,20100212,-110.51,31.59,,,,,,,,,,,,,,,,,,,,,,,,,,,,
53132,20100213,-110.51,31.59,,,,,,,,,,,,,,,,,,,,,,,,,,,,
53132,20100214,-110.51,31.59,,,,,,,,,,,,,,,,,,,,,,,,,,,,
53132,20100215,-110.51,31.59,,,,,,,,,,,,,,,,,,,,,,,,,,,,
53132,20100216,-110.51,31.59,0.19,0.9,0,1,0.208,0.8,0,1,0.251,0.46,0,0.993,0.233,0,0,0,0.233,0.7,0,1,0.199,0.88,0,1,0.223,0.67,0,1
53132,20100217,-110.51,31.59,0.19,0.88,0,1,0.209,0.8,0,1,0.252,0.46,0,1,0.235,0,0,0,0.235,0.68,0,1,0.2,0.88,0,1,0.224,0.68,0,1
53132,20100218,-110.51,31.59,0.19,0.85,0,1,0.21,0.81,0,1,0.254,0.47,0,1,0.238,0.02,0,0,0.237,0.66,0,1,0.2,0.86,0,1,0.226,0.69,0,1
53132,20100219,-110.51,31.59,0.186,0.77,0,1,0.21,0.8,0,1,0.254,0.47,0,1,0.239,0.02,0,0,0.239,0.63,0,1,0.198,0.82,0,1,0.226,0.7,0,1
53132,20100220,-110.51,31.59,0.182,0.7,0,1,0.21,0.79,0,1,0.254,0.46,0,1,0.24,0.02,0,0,0.241,0.62,0,1,0.196,0.78,0,1,0.225,0.7,0,1
53132,20100221,-110.51,31.59,0.179,0.64,0,0.976,0.209,0.77,0,1,0.253,0.45,0,1,0.24,0.02,0,0,0.243,0.61,0,1,0.194,0.74,0,1,0.225,0.7,0,1
53132,20100222,-110.51,31.59,0.177,0.6,0,0.976,0.208,0.76,0,1,0.252,0.44,0,1,0.24,0.02,0,0,0.244,0.6,0,1,0.192,0.7,0,1,0.224,0.7,0,1
53132,20100223,-110.51,31.59,0.177,0.58,0,0.976,0.208,0.75,0,1,0.251,0.43,0,1,0.24,0.03,0,0,0.245,0.59,0,1,0.192,0.68,0,1,0.224,0.69,0,1
53132,20100224,-110.51,31.59,0.178,0.57,0,0.976,0.207,0.75,0,1,0.251,0.43,0,1,0.24,0.03,0,0,0.245,0.57,0,1,0.192,0.68,0,1,0.224,0.67,0,1
53132,20100225,-110.51,31.59,0.178,0.57,0,0.976,0.207,0.74,0,1,0.25,0.42,0,1,0.24,0.03,0,0,0.245,0.55,0,1,0.193,0.68,0,1,0.224,0.65,0,1
53132,20100226,-110.51,31.59,0.18,0.59,0,0.976,0.207,0.74,0,1,0.25,0.41,0,1,0.24,0.04,0,0,0.246,0.53,0,1,0.193,0.68,0,1,0.224,0.62,0,1
53132,20100227,-110.51,31.59,0.181,0.61,0,0.976,0.207,0.74,0,1,0.25,0.41,0,1,0.24,0.05,0,0,0.246,0.51,0,1,0.194,0.7,0,1,0.225,0.6,0,1
53132,20100228,-110.51,31.59,0.183,0.64,0,1,0.207,0.74,0,1,0.25,0.4,0,1,0.24,0.05,0,0,0.246,0.5,0,1,0.195,0.72,0,1,0.225,0.58,0,1
53132,20100301,-110.51,31.59,0.19,0.72,0,1,0.208,0.74,0,1,0.251,0.41,0,1,0.241,0.07,0,0.113,0.246,0.5,0,1,0.199,0.77,0,1,0.227,0.58,0,1
53132,20100302,-110.51,31.59,0.194,0.78,0,1,0.209,0.75,0,1,0.253,0.43,0,1,0.242,0.09,0,0.256,0.246,0.49,0,1,0.202,0.81,0,1,0.229,0.6,0,1
53132,20100303,-110.51,31.59,0.197,0.82,0,1,0.21,0.76,0,1,0.255,0.44,0,1,0.244,0.12,0,0.399,0.247,0.49,0,1,0.203,0.84,0,1,0.23,0.62,0,1
53132,20100304,-110.51,31.59,0.199,0.87,0,1,0.211,0.77,0,1,0.256,0.46,0,1,0.246,0.14,0,0.542,0.247,0.49,0,1,0.205,0.88,0,1,0.232,0.65,0,1
53132,20100305,-110.51,31.59,0.202,0.92,0,1,0.212,0.81,0,1,0.258,0.48,0,1,0.247,0.16,0,0.685,0.248,0.5,0,1,0.207,0.93,0,1,0.233,0.68,0,1
53132,20100306,-110.51,31.59,0.203,0.96,0,1,0.213,0.88,0,1,0.259,0.52,0,1,0.248,0.17,0,0.827,0.249,0.52,0,1,0.208,0.99,0,1,0.234,0.7,0,1
53132,20100307,-110.51,31.59,0.204,0.99,0,1,0.214,0.96,0,1,0.26,0.57,0,1,0.249,0.19,0,0.97,0.25,0.55,0,1,0.209,1.05,0,1,0.235,0.72,0,1
53132,20100308,-110.51,31.59,0.201,0.99,0,1,0.214,1.03,0,1,0.26,0.62,0,1,0.25,0.2,0,1,0.251,0.59,0,1,0.207,1.08,0,1,0.235,0.73,0,1
53132,20100309,-110.51,31.59,0.202,1.03,0,1,0.215,1.11,0,1,0.261,0.68,0,1,0.251,0.21,0,1,0.252,0.63,0,1,0.209,1.15,0,1,0.236,0.74,0,1
53132,20100310,-110.51,31.59,0.203,1.06,0,1,0.215,1.19,0,1,0.261,0.74,0,1,0.252,0.22,0,1,0.253,0.67,0,1,0.209,1.21,0,1,0.237,0.75,0,1
53132,20100311,-110.51,31.59,0.203,1.09,0,1,0.216,1.26,0,1,0.262,0.8,0,1,0.253,0.23,0,1,0.254,0.71,0,1,0.209,1.26,0,1,0.237,0.76,0,1
53132,20100312,-110.51,31.59,0.204,1.12,0,1,0.216,1.31,0,1,0.262,0.86,0,1,0.253,0.24,0,1,0.254,0.75,0,1,0.21,1.28,0,1,0.238,0.76,0,1
53132,20100313,-110.51,31.59,0.205,1.16,0,1,0.217,1.33,0,1,0.262,0.9,0,1,0.254,0.25,0,1,0.255,0.78,0,1,0.211,1.3,0,1,0.238,0.77,0,1
53132,20100314,-110.51,31.59,0.206,1.21,0,1,0.217,1.34,0,1,0.263,0.93,0,1,0.255,0.26,0,1,0.255,0.8,0,1,0.212,1.33,0,1,0.239,0.78,0,1
53132,20100315,-110.51,31.59,0.205,1.22,0,1,0.217,1.35,0,1,0.263,0.96,0,1,0.256,0.28,0,1,0.256,0.82,0,1,0.211,1.33,0,1,0.239,0.79,0,1
53132,20100316,-110.51,31.59,0.2,1.19,0,1,0.217,1.35,0,1,0.262,0.96,0,1,0.255,0.28,0,1,0.257,0.85,0,1,0.208,1.3,0,1,0.238,0.78,0,1
53132,20100317,-110.51,31.59,0.197,1.18,0,1,0.216,1.34,0,1,0.262,0.96,0,1,0.254,0.29,0,1,0.257,0.88,0,1,0.206,1.29,0,1,0.237,0.79,0,1
53132,20100318,-110.51,31.59,0.193,1.17,0,1,0.215,1.34,0,1,0.261,0.96,0,1,0.254,0.3,0,1,0.258,0.9,0,1,0.204,1.28,0,1,0.236,0.8,0,1
53132,20100319,-110.51,31.59,0.19,1.17,0,1,0.215,1.34,0,1,0.26,0.94,0,1,0.253,0.31,0,1,0.258,0.93,0,1,0.202,1.28,0,1,0.235,0.81,0,1
53132,20100320,-110.51,31.59,0.187,1.16,0,1,0.214,1.34,0,1,0.26,0.93,0,1,0.253,0.33,0,1,0.258,0.95,0,1,0.2,1.28,0,1,0.234,0.84,0,1
53132,20100321,-110.51,31.59,0.183,1.15,0,1,0.213,1.34,0,1,0.259,0.9,0,1,0.252,0.36,0,1,0.259,0.98,0,1,0.198,1.28,0,1,0.233,0.87,0,1
53132,20100322,-110.51,31.59,0.18,1.15,0,1,0.212,1.34,0,1,0.258,0.87,0,1,0.251,0.38,0,1,0.259,1,0,1,0.196,1.28,0,1,0.232,0.9,0,1
53132,20100323,-110.51,31.59,0.177,1.16,0,1,0.211,1.36,0,1,0.257,0.84,0,1,0.251,0.41,0,1,0.259,1.02,0,1,0.194,1.3,0,1,0.231,0.95,0,1
53132,20100324,-110.51,31.59,0.174,1.16,0,1,0.21,1.37,0,1,0.257,0.82,0,1,0.25,0.44,0,1,0.259,1.05,0,1,0.192,1.32,0,1,0.23,0.99,0,1
53132,20100325,-110.51,31.59,0.171,1.17,0,1,0.209,1.38,0,1,0.256,0.81,0,1,0.25,0.48,0,1,0.26,1.07,0,1,0.19,1.34,0,1,0.229,1.03,0,1
53132,20100326,-110.51,31.59,0.169,1.18,0,1,0.208,1.41,0,1,0.255,0.81,0,1,0.249,0.51,0,1,0.26,1.09,0,1,0.188,1.37,0,1,0.228,1.08,0,1
53132,20100327,-110.51,31.59,0.166,1.2,0,1,0.207,1.45,0,1,0.254,0.83,0,1,0.248,0.53,0,1,0.26,1.12,0,1,0.187,1.4,0,1,0.227,1.13,0,1
53132,20100328,-110.51,31.59,0.164,1.22,0,1,0.206,1.49,0,1,0.253,0.85,0,1,0.248,0.56,0,1,0.26,1.13,0,1,0.185,1.43,0,1,0.226,1.17,0,1
53132,20100329,-110.51,31.59,0.161,1.25,0,1,0.205,1.53,0,1,0.253,0.88,0,1,0.247,0.57,0,1,0.26,1.16,0,1,0.183,1.48,0,1,0.225,1.22,0,1
53132,20100330,-110.51,31.59,0.158,1.29,0,1,0.204,1.58,0,1,0.252,0.92,0,1,0.246,0.59,0,1,0.26,1.19,0,1,0.181,1.54,0,1,0.224,1.27,0,1
53132,20100331,-110.51,31.59,0.156,1.34,0,1,0.203,1.65,0,1,0.251,0.97,0,1,0.246,0.6,0,1,0.261,1.23,0,1,0.179,1.62,0,1,0.223,1.32,0,1
53132,20100401,-110.51,31.59,0.153,1.38,0,1,0.202,1.74,0,1,0.251,1.03,0,1,0.245,0.61,0,1,0.261,1.28,0,1,0.177,1.7,0,1,0.222,1.38,0,1
53132,20100402,-110.51,31.59,0.149,1.41,0,1,0.201,1.82,0,1,0.25,1.08,0,1,0.245,0.62,0,1,0.261,1.34,0,1,0.175,1.78,0,1,0.221,1.43,0,1
53132,20100403,-110.51,31.59,0.145,1.45,0,1,0.199,1.92,0,1,0.249,1.14,0,1,0.244,0.63,0,1,0.261,1.4,0,1,0.172,1.88,0,1,0.22,1.49,0,1
53132,20100404,-110.51,31.59,0.143,1.5,0,1,0.198,2.03,0,1,0.248,1.2,0,1,0.243,0.64,0,1,0.261,1.47,0,1,0.171,1.99,0,1,0.219,1.56,0,1
53132,20100405,-110.51,31.59,0.14,1.56,0,1,0.197,2.16,0,1,0.247,1.27,0,1,0.243,0.67,0,1,0.261,1.55,0,1,0.169,2.09,0,1,0.218,1.65,0,1
53132,20100406,-110.51,31.59,0.137,1.62,0,1,0.196,2.31,0,1,0.246,1.33,0,1,0.243,0.71,0,1,0.261,1.63,0,1,0.167,2.18,0,1,0.217,1.76,0,1
53132,20100407,-110.51,31.59,0.134,1.67,0,1,0.195,2.48,0,1,0.245,1.39,0,1,0.242,0.74,0,1,0.261,1.7,0,1,0.164,2.26,0,1,0.215,1.85,0,1
53132,20100408,-110.51,31.59,0.131,1.74,0,1,0.194,2.66,0,1,0.244,1.45,0,1,0.241,0.78,0,1,0.261,1.79,0,1,0.162,2.35,0,1,0.214,1.95,0,1
53132,20100409,-110.51,31.59,0.128,1.82,0,1,0.193,2.85,0,1,0.242,1.52,0,1,0.241,0.83,0,1,0.261,1.87,0,1,0.16,2.44,0,1,0.213,2.04,0,1
53132,20100410,-110.51,31.59,0.125,1.89,0,1,0.192,3.05,0,1,0.241,1.59,0,1,0.241,0.88,0,1,0.261,1.98,0,1,0.158,2.53,0,1,0.212,2.14,0,1
53132,20100411,-110.51,31.59,0.122,1.95,0,1,0.19,3.25,0,1,0.24,1.67,0,1,0.24,0.93,0,1,0.261,2.11,0,1,0.156,2.62,0,1,0.211,2.24,0,1
53132,20100412,-110.51,31.59,0.118,2,0,1,0.189,3.44,0,1,0.239,1.74,0,1,0.24,0.97,0,1,0.261,2.24,0,1,0.154,2.72,0,1,0.209,2.32,0,1
53132,20100413,-110.51,31.59,0.115,2.04,0,1,0.187,3.61,0,1,0.237,1.82,0,1,0.239,1.01,0,1,0.261,2.39,0,1,0.151,2.82,0,1,0.208,2.4,0,1
53132,20100414,-110.51,31.59,0.111,2.06,0,1,0.186,3.74,0,1,0.235,1.9,0,1,0.238,1.05,0,1,0.261,2.55,0,1,0.149,2.92,0,1,0.206,2.49,0,1
53132,20100415,-110.51,31.59,0.108,2.09,0,1,0.184,3.86,0,1,0.233,1.98,0,1,0.237,1.1,0,1,0.261,2.72,0,1,0.146,3.01,0,1,0.205,2.59,0,1
53132,20100416,-110.51,31.59,0.105,2.11,0,1,0.182,3.94,0,1,0.23,2.07,0,1,0.236,1.15,0,1,0.261,2.9,0,1,0.144,3.09,0,1,0.203,2.69,0,1
53132,20100417,-110.51,31.59,0.102,2.12,0,1,0.18,3.99,0,1,0.227,2.15,0,1,0.235,1.2,0,1,0.261,3.07,0,1,0.141,3.15,0,1,0.201,2.79,0,1
53132,20100418,-110.51,31.59,0.099,2.13,0,1,0.178,4.02,0,1,0.225,2.24,0,1,0.234,1.25,0,1,0.261,3.25,0,1,0.139,3.2,0,1,0.199,2.88,0,1
53132,20100419,-110.51,31.59,0.096,2.12,0,1,0.176,4.04,0,1,0.222,2.31,0,1,0.233,1.3,0,1,0.26,3.43,0,1,0.136,3.23,0,1,0.197,2.96,0,1
53132,20100420,-110.51,31.59,0.094,2.1,0,1,0.174,4.06,0,1,0.219,2.38,0,1,0.231,1.35,0,1,0.26,3.61,0,1,0.134,3.24,0,1,0.195,3.01,0,1
53132,20100421,-110.51,31.59,0.092,2.1,0,1,0.171,4.09,0,1,0.216,2.44,0,1,0.23,1.39,0,1,0.26,3.78,0,1,0.131,3.26,0,1,0.194,3.06,0,1
53132,20100422,-110.51,31.59,0.09,2.09,0,1,0.169,4.11,0,1,0.214,2.49,0,1,0.228,1.43,0,1,0.259,3.94,0,1,0.129,3.25,0,1,0.192,3.09,0,1
53132,20100423,-110.51,31.59,0.087,2.04,0,1,0.166,4.12,0,1,0.211,2.53,0,1,0.227,1.45,0,1,0.258,4.09,0,1,0.127,3.2,0,1,0.19,3.11,0,1
53132,20100424,-110.51,31.59,0.093,2.44,0,1,0.163,4.15,0,1,0.209,2.55,0,1,0.227,1.51,0,1,0.257,4.22,0,1,0.128,3.38,0,1,0.19,3.22,0,1
53132,20100425,-110.51,31.59,0.101,2.89,0,1,0.162,4.21,0,1,0.206,2.57,0,1,0.227,1.55,0,1,0.256,4.34,0,1,0.131,3.61,0,1,0.19,3.34,0,1
53132,20100426,-110.51,31.59,0.108,3.35,0,1,0.16,4.27,0,1,0.205,2.61,0,1,0.227,1.59,0,1,0.254,4.45,0,1,0.134,3.83,0,1,0.191,3.46,0,1
53132,20100427,-110.51,31.59,0.115,3.79,0,1,0.159,4.31,0,1,0.204,2.67,0,1,0.226,1.63,0,1,0.253,4.57,0,1,0.137,4.05,0,1,0.191,3.6,0,1
53132,20100428,-110.51,31.59,0.122,4.19,0,1,0.158,4.34,0,1,0.203,2.74,0,1,0.226,1.66,0,1,0.251,4.68,0,1,0.14,4.25,0,1,0.192,3.73,0,1
53132,20100429,-110.51,31.59,0.127,4.53,0,1,0.158,4.35,0,1,0.202,2.83,0,1,0.225,1.68,0,1,0.25,4.78,0,1,0.142,4.42,0,1,0.192,3.87,0,1
53132,20100430,-110.51,31.59,0.132,4.81,0,1,0.157,4.36,0,1,0.202,2.93,0,1,0.224,1.7,0,1,0.248,4.88,0,1,0.144,4.58,0,1,0.193,3.98,0,1
53132,20100501,-110.51,31.59,0.127,4.59,0,1,0.156,4.35,0,1,0.201,3.04,0,1,0.221,1.67,0,1,0.246,4.97,0,1,0.142,4.48,0,1,0.19,3.99,0,1
53132,20100502,-110.51,31.59,0.121,4.29,0,1,0.154,4.32,0,1,0.201,3.14,0,1,0.218,1.64,0,1,0.245,5.07,0,1,0.138,4.31,0,1,0.188,3.97,0,1
53132,20100503,-110.51,31.59,0.115,3.98,0,1,0.153,4.29,0,1,0.2,3.24,0,1,0.215,1.61,0,1,0.243,5.16,0,1,0.134,4.15,0,1,0.185,3.95,0,1
53132,20100504,-110.51,31.59,0.109,3.68,0,1,0.15,4.26,0,1,0.198,3.33,0,1,0.213,1.59,0,1,0.241,5.24,0,1,0.13,3.99,0,1,0.182,3.92,0,1
53132,20100505,-110.51,31.59,0.103,3.41,0,1,0.148,4.24,0,1,0.197,3.43,0,1,0.21,1.56,0,1,0.239,5.31,0,1,0.126,3.84,0,1,0.179,3.88,0,1
53132,20100506,-110.51,31.59,0.099,3.19,0,1,0.145,4.21,0,1,0.195,3.52,0,1,0.208,1.53,0,1,0.236,5.38,0,1,0.122,3.7,0,1,0.177,3.83,0,1
53132,20100507,-110.51,31.59,0.095,3.01,0,1,0.143,4.18,0,1,0.194,3.6,0,1,0.206,1.51,0,1,0.233,5.4,0,1,0.119,3.58,0,1,0.174,3.78,0,1
53132,20100508,-110.51,31.59,0.091,2.9,0,1,0.141,4.15,0,1,0.192,3.69,0,1,0.204,1.48,0,1,0.23,5.43,0,1,0.116,3.49,0,1,0.172,3.73,0,1
53132,20100509,-110.51,31.59,0.088,2.78,0,1,0.138,4.1,0,1,0.191,3.78,0,1,0.202,1.45,0,1,0.227,5.43,0,1,0.113,3.4,0,1,0.169,3.68,0,1
53132,20100510,-110.51,31.59,0.085,2.68,0,1,0.135,4.03,0,1,0.189,3.85,0,1,0.2,1.42,0,1,0.222,5.39,0,1,0.11,3.3,0,1,0.166,3.62,0,1
53132,20100511,-110.51,31.59,0.081,2.57,0,1,0.133,3.95,0,1,0.187,3.89,0,1,0.198,1.37,0,1,0.218,5.31,0,1,0.107,3.2,0,1,0.163,3.55,0,1
53132,20100512,-110.51,31.59,0.078,2.47,0,1,0.13,3.86,0,1,0.184,3.9,0,1,0.196,1.33,0,1,0.213,5.2,0,1,0.104,3.11,0,1,0.16,3.47,0,1
53132,20100513,-110.51,31.59,0.075,2.37,0,1,0.127,3.77,0,1,0.182,3.9,0,1,0.194,1.29,0,1,0.207,5.07,0,1,0.101,3.04,0,1,0.157,3.4,0,1
53132,20100514,-110.51,31.59,0.072,2.3,0,1,0.125,3.69,0,1,0.18,3.89,0,1,0.192,1.25,0,1,0.203,4.96,0,1,0.099,3,0,1,0.154,3.34,0,1
53132,20100515,-110.51,31.59,0.07,2.25,0,1,0.123,3.61,0,1,0.178,3.87,0,1,0.19,1.21,0,1,0.198,4.83,0,1,0.096,2.97,0,1,0.152,3.28,0,1
53132,20100516,-110.51,31.59,0.069,2.22,0,1,0.121,3.57,0,1,0.176,3.86,0,1,0.188,1.19,0,1,0.193,4.7,0,1,0.095,2.97,0,1,0.149,3.23,0,1
53132,20100517,-110.51,31.59,0.067,2.19,0,1,0.119,3.52,0,1,0.174,3.85,0,1,0.187,1.16,0,1,0.189,4.57,0,1,0.093,2.95,0,1,0.147,3.18,0,1
53132,20100518,-110.51,31.59,0.066,2.16,0,1,0.118,3.49,0,1,0.173,3.82,0,1,0.185,1.14,0,1,0.185,4.45,0,1,0.092,2.94,0,1,0.145,3.13,0,1
53132,20100519,-110.51,31.59,0.064,2.14,0,1,0.117,3.46,0,1,0.171,3.79,0,1,0.184,1.12,0,1,0.182,4.33,0,1,0.091,2.93,0,1,0.144,3.07,0,1
53132,20100520,-110.51,31.59,0.063,2.13,0,1,0.116,3.44,0,1,0.17,3.75,0,1,0.182,1.1,0,1,0.178,4.23,0,1,0.09,2.92,0,1,0.142,3.02,0,1
53132,20100521,-110.51,31.59,0.062,2.12,0,1,0.115,3.45,0,1,0.169,3.7,0,1,0.181,1.09,0,1,0.175,4.11,0,1,0.088,2.91,0,1,0.14,2.97,0,1
53132,20100522,-110.51,31.59,0.061,2.11,0,1,0.113,3.47,0,1,0.168,3.66,0,1,0.179,1.07,0,1,0.173,4.01,0,1,0.087,2.9,0,1,0.139,2.93,0,1
53132,20100523,-110.51,31.59,0.06,2.08,0,1,0.112,3.46,0,1,0.166,3.59,0,1,0.177,1.04,0,1,0.17,3.9,0,1,0.086,2.87,0,1,0.137,2.88,0,1
53132,20100524,-110.51,31.59,0.059,2.04,0,1,0.111,3.45,0,1,0.165,3.5,0,1,0.175,1.02,0,1,0.167,3.79,0,1,0.085,2.83,0,1,0.136,2.82,0,1
53132,20100525,-110.51,31.59,0.058,1.98,0,1,0.11,3.42,0,1,0.163,3.4,0,1,0.174,0.99,0,1,0.165,3.68,0,1,0.084,2.78,0,1,0.134,2.75,0,1
53132,20100526,-110.51,31.59,0.057,1.92,0,1,0.108,3.37,0,1,0.162,3.3,0,1,0.172,0.96,0,1,0.162,3.58,0,1,0.083,2.72,0,1,0.132,2.69,0,1
53132,20100527,-110.51,31.59,0.056,1.84,0,1,0.107,3.32,0,1,0.16,3.21,0,1,0.17,0.93,0,1,0.16,3.48,0,1,0.082,2.65,0,1,0.131,2.62,0,1
53132,20100528,-110.51,31.59,0.055,1.74,0,1,0.106,3.27,0,1,0.159,3.12,0,1,0.169,0.9,0,1,0.158,3.37,0,1,0.081,2.56,0,1,0.129,2.55,0,1
53132,20100529,-110.51,31.59,0.054,1.64,0,1,0.105,3.2,0,1,0.158,3.01,0,1,0.167,0.88,0,1,0.155,3.24,0,1,0.08,2.46,0,1,0.128,2.46,0,1
53132,20100530,-110.51,31.59,0.053,1.55,0,1,0.104,3.14,0,1,0.157,2.91,0,1,0.165,0.85,0,1,0.152,3.12,0,1,0.079,2.36,0,1,0.126,2.38,0,1
53132,20100531,-110.51,31.59,0.052,1.46,0,1,0.103,3.08,0,1,0.156,2.81,0,1,0.164,0.82,0,1,0.15,3.01,0,1,0.078,2.26,0,1,0.125,2.31,0,1
53132,20100601,-110.51,31.59,0.051,1.39,0,1,0.102,3.03,0,1,0.155,2.73,0,1,0.162,0.79,0,1,0.148,2.9,0,1,0.077,2.17,0,1,0.124,2.25,0,1
53132,20100602,-110.51,31.59,0.05,1.32,0,1,0.102,3,0,1,0.153,2.66,0,1,0.161,0.77,0,1,0.145,2.78,0,1,0.076,2.08,0,1,0.122,2.19,0,1
53132,20100603,-110.51,31.59,0.05,1.27,0,1,0.101,2.97,0,1,0.152,2.58,0,1,0.159,0.74,0,1,0.142,2.66,0,1,0.075,2.01,0,1,0.121,2.15,0,1
53132,20100604,-110.51,31.59,0.049,1.23,0,1,0.1,2.95,0,1,0.151,2.5,0,1,0.158,0.71,0,1,0.14,2.55,0,1,0.075,1.94,0,1,0.12,2.12,0,1
53132,20100605,-110.51,31.59,0.048,1.18,0,1,0.099,2.91,0,1,0.15,2.43,0,1,0.157,0.68,0,1,0.138,2.44,0,1,0.074,1.87,0,1,0.118,2.09,0,1
53132,20100606,-110.51,31.59,0.048,1.15,0,1,0.099,2.88,0,1,0.149,2.37,0,1,0.155,0.66,0,1,0.136,2.35,0,1,0.073,1.81,0,1,0.117,2.07,0,1
53132,20100607,-110.51,31.59,0.047,1.12,0,1,0.098,2.84,0,1,0.148,2.33,0,1,0.154,0.63,0,1,0.134,2.25,0,1,0.073,1.76,0,1,0.116,2.07,0,1
53132,20100608,-110.51,31.59,0.047,1.08,0,0.994,0.098,2.8,0,1,0.147,2.28,0,1,0.153,0.6,0,1,0.132,2.16,0,1,0.072,1.7,0,1,0.115,2.05,0,1
53132,20100609,-110.51,31.59,0.046,1.04,0,0.988,0.097,2.75,0,1,0.146,2.22,0,1,0.152,0.57,0,1,0.131,2.08,0,1,0.072,1.65,0,1,0.114,2.03,0,1
53132,20100610,-110.51,31.59,0.046,1.01,0,0.976,0.097,2.69,0,1,0.145,2.17,0,1,0.15,0.54,0,1,0.129,2,0,1,0.071,1.61,0,1,0.113,2.01,0,1
53132,20100611,-110.51,31.59,0.045,0.96,0,0.946,0.096,2.61,0,1,0.144,2.11,0,1,0.149,0.51,0,1,0.127,1.92,0,1,0.071,1.55,0,1,0.112,1.96,0,1
53132,20100612,-110.51,31.59,0.044,0.9,0,0.917,0.095,2.52,0,1,0.143,2.03,0,1,0.148,0.47,0,1,0.126,1.85,0,1,0.07,1.49,0,1,0.111,1.91,0,1
53132,20100613,-110.51,31.59,0.043,0.84,0,0.887,0.094,2.42,0,1,0.142,1.92,0,1,0.146,0.42,0,1,0.124,1.77,0,1,0.069,1.43,0,1,0.11,1.84,0,1
53132,20100614,-110.51,31.59,0.043,0.78,0,0.869,0.093,2.32,0,1,0.14,1.81,0,1,0.145,0.38,0,0.988,0.122,1.68,0,1,0.068,1.37,0,1,0.109,1.77,0,1
53132,20100615,-110.51,31.59,0.042,0.73,0,0.851,0.092,2.24,0,1,0.139,1.72,0,1,0.143,0.34,0,0.97,0.12,1.6,0,1,0.067,1.32,0,1,0.107,1.71,0,1
53132,20100616,-110.51,31.59,0.041,0.69,0,0.851,0.091,2.15,0,1,0.138,1.64,0,1,0.142,0.31,0,0.94,0.119,1.54,0,1,0.066,1.26,0,1,0.106,1.66,0,1
53132,20100617,-110.51,31.59,0.041,0.64,0,0.827,0.09,2.08,0,1,0.137,1.57,0,1,0.141,0.28,0,0.917,0.118,1.47,0,1,0.065,1.2,0,1,0.105,1.61,0,1
53132,20100618,-110.51,31.59,0.04,0.59,0,0.815,0.089,2.01,0,1,0.136,1.52,0,1,0.14,0.26,0,0.875,0.116,1.42,0,1,0.065,1.14,0,1,0.104,1.57,0,1
53132,20100619,-110.51,31.59,0.04,0.53,0,0.798,0.089,1.95,0,1,0.135,1.47,0,1,0.139,0.24,0,0.798,0.115,1.38,0,1,0.064,1.08,0,1,0.104,1.54,0,1
53132,20100620,-110.51,31.59,0.039,0.46,0,0.75,0.088,1.9,0,1,0.135,1.45,0,1,0.139,0.22,0,0.696,0.114,1.36,0,1,0.064,1.03,0,1,0.103,1.5,0,1
53132,20100621,-110.51,31.59,0.039,0.4,0,0.679,0.088,1.85,0,1,0.134,1.44,0,1,0.138,0.21,0,0.619,0.114,1.35,0,1,0.063,0.97,0,1,0.103,1.47,0,1
53132,20100622,-110.51,31.59,0.038,0.33,0,0.577,0.088,1.8,0,1,0.134,1.43,0,1,0.138,0.2,0,0.548,0.113,1.35,0,1,0.063,0.91,0,1,0.102,1.42,0,1
53132,20100623,-110.51,31.59,0.038,0.24,0,0.44,0.088,1.73,0,1,0.134,1.4,0,1,0.137,0.19,0,0.47,0.112,1.34,0,1,0.063,0.84,0,1,0.102,1.36,0,1
53132,20100624,-110.51,31.59,0.037,0.17,0,0.333,0.087,1.65,0,1,0.133,1.37,0,1,0.137,0.18,0,0.381,0.112,1.34,0,1,0.062,0.78,0,1,0.101,1.29,0,1
53132,20100625,-110.51,31.59,0.037,0.09,0,0.232,0.087,1.57,0,1,0.132,1.32,0,1,0.136,0.17,0,0.298,0.111,1.34,0,1,0.062,0.71,0,1,0.101,1.21,0,1
53132,20100626,-110.51,31.59,0.037,0.04,0,0.137,0.087,1.49,0,1,0.132,1.29,0,1,0.135,0.16,0,0.244,0.111,1.3,0,1,0.062,0.65,0,1,0.1,1.14,0,1
53132,20100627,-110.51,31.59,0.036,0.01,0,0.071,0.086,1.41,0,1,0.131,1.25,0,1,0.135,0.15,0,0.214,0.11,1.27,0,1,0.061,0.59,0,1,0.1,1.07,0,1
53132,20100628,-110.51,31.59,0.036,-0.04,0,0.018,0.086,1.32,0,1,0.131,1.2,0,1,0.134,0.14,0,0.161,0.109,1.22,0,1,0.061,0.52,0,0.988,0.099,1,0,1
53132,20100629,-110.51,31.59,0.036,-0.08,0.03,0,0.085,1.22,0,1,0.13,1.15,0,1,0.134,0.12,0,0.107,0.109,1.16,0,1,0.061,0.44,0,0.863,0.099,0.93,0,1
53132,20100630,-110.51,31.59,0.035,-0.1,0.06,0,0.085,1.12,0,1,0.129,1.08,0,1,0.133,0.09,0,0.071,0.108,1.1,0,1,0.06,0.37,0,0.72,0.098,0.86,0,1
53132,20100701,-110.51,31.59,0.036,-0.11,0.06,0,0.084,1.01,0,1,0.128,1,0,1,0.132,0.07,0,0.042,0.108,1.02,0,1,0.06,0.3,0,0.577,0.097,0.79,0,1
53132,20100702,-110.51,31.59,0.038,-0.08,0.06,0,0.083,0.91,0,1,0.127,0.9,0,1,0.131,0.03,0,0.024,0.107,0.94,0,1,0.061,0.26,0,0.506,0.097,0.73,0,1
53132,20100703,-110.51,31.59,0.041,-0.04,0.06,0.012,0.083,0.81,0,1,0.126,0.78,0,0.958,0.13,0,0,0.012,0.106,0.87,0,1,0.062,0.24,0,0.446,0.097,0.68,0,1
53132,20100704,-110.51,31.59,0.044,0.01,0.06,0.018,0.082,0.71,0,1,0.125,0.67,0,0.958,0.129,-0.02,0,0,0.105,0.8,0,1,0.063,0.22,0,0.399,0.097,0.64,0,1
53132,20100705,-110.51,31.59,0.046,0.04,0.06,0.018,0.082,0.63,0,0.994,0.124,0.58,0,0.946,0.128,-0.04,0,0,0.104,0.74,0,1,0.064,0.21,0,0.268,0.097,0.6,0,1
53132,20100706,-110.51,31.59,0.048,0.07,0.03,0.018,0.082,0.57,0,0.964,0.124,0.5,0,0.946,0.128,-0.05,0,0,0.103,0.68,0,1,0.065,0.2,0,0.25,0.097,0.56,0,1
53132,20100707,-110.51,31.59,0.05,0.08,0,0.018,0.082,0.51,0,0.827,0.124,0.44,0,0.946,0.128,-0.06,0,0,0.103,0.64,0,1,0.066,0.19,0,0.25,0.097,0.51,0,0.923
53132,20100708,-110.51,31.59,0.051,0.07,0,0.018,0.082,0.45,0,0.685,0.123,0.4,0,0.929,0.128,-0.06,0,0,0.102,0.6,0,1,0.066,0.17,0,0.25,0.097,0.46,0,0.78
53132,20100709,-110.51,31.59,0.05,0.02,0.024,0.018,0.082,0.41,0,0.542,0.124,0.39,0,0.893,0.128,-0.06,0,0,0.102,0.57,0,1,0.066,0.13,0,0.179,0.097,0.38,0,0.637
53132,20100710,-110.51,31.59,0.048,-0.04,0.071,0.006,0.083,0.36,0,0.399,0.124,0.39,0,0.827,0.128,-0.06,0,0,0.102,0.55,0,1,0.065,0.08,0,0.095,0.097,0.3,0,0.494
53132,20100711,-110.51,31.59,0.045,-0.11,0.214,0,0.083,0.31,0,0.256,0.124,0.36,0,0.696,0.128,-0.07,0,0,0.102,0.52,0,0.952,0.064,0.02,0,0,0.096,0.21,0,0.351
53132,20100712,-110.51,31.59,0.043,-0.18,0.357,0,0.083,0.25,0,0.119,0.124,0.31,0,0.565,0.127,-0.09,0,0,0.102,0.49,0,0.845,0.063,-0.02,0,0,0.096,0.13,0,0.208
53132,20100713,-110.51,31.59,0.043,-0.23,0.5,0,0.082,0.19,0,0.006,0.124,0.26,0,0.423,0.127,-0.11,0,0,0.102,0.44,0,0.702,0.062,-0.06,0,0,0.095,0.06,0,0.065
53132,20100714,-110.51,31.59,0.043,-0.27,0.643,0,0.082,0.14,0,0,0.123,0.21,0,0.28,0.126,-0.13,0,0,0.101,0.4,0,0.56,0.062,-0.1,0.048,0,0.095,0.01,0,0
53132,20100715,-110.51,31.59,0.043,-0.31,0.786,0,0.081,0.09,0,0,0.123,0.15,0,0.155,0.126,-0.14,0,0,0.101,0.35,0,0.417,0.062,-0.14,0.185,0,0.095,-0.03,0,0
53132,20100716,-110.51,31.59,0.043,-0.36,0.905,0,0.081,0.05,0,0,0.123,0.1,0,0.048,0.125,-0.16,0,0,0.101,0.3,0,0.274,0.062,-0.18,0.327,0,0.095,-0.06,0.006,0
53132,20100717,-110.51,31.59,0.044,-0.39,1,0,0.079,-0.02,0.071,0,0.122,0.05,0,0.012,0.125,-0.18,0.03,0,0.097,0.16,0.071,0.131,0.061,-0.23,0.47,0,0.093,-0.11,0.107,0
53132,20100718,-110.51,31.59,0.062,-0.25,0.917,0.083,0.077,-0.09,0.173,0.006,0.128,0.13,0,0.083,0.132,-0.1,0.036,0.083,0.089,-0.05,0.214,0.036,0.07,-0.17,0.53,0.083,0.098,-0.07,0.167,0.083
53132,20100719,-110.51,31.59,0.088,-0.03,0.774,0.226,0.085,0.01,0.173,0.149,0.138,0.32,0,0.226,0.144,0.05,0.036,0.226,0.081,-0.23,0.357,0,0.087,0,0.53,0.226,0.107,0.06,0.167,0.226
53132,20100720,-110.51,31.59,0.111,0.17,0.631,0.369,0.093,0.1,0.173,0.292,0.15,0.53,0,0.369,0.154,0.16,0.036,0.369,0.073,-0.39,0.5,0,0.102,0.15,0.53,0.369,0.116,0.16,0.167,0.369
53132,20100721,-110.51,31.59,0.131,0.34,0.488,0.512,0.1,0.17,0.173,0.327,0.161,0.71,0,0.512,0.163,0.26,0.036,0.458,0.066,-0.54,0.643,0,0.116,0.29,0.482,0.512,0.124,0.26,0.167,0.476
53132,20100722,-110.51,31.59,0.149,0.5,0.345,0.595,0.106,0.22,0.173,0.327,0.172,0.87,0,0.655,0.17,0.34,0.036,0.458,0.058,-0.68,0.786,0,0.128,0.4,0.345,0.542,0.131,0.33,0.167,0.476
53132,20100723,-110.51,31.59,0.166,0.64,0.202,0.595,0.111,0.25,0.173,0.327,0.182,1.01,0,0.798,0.178,0.41,0.036,0.458,0.05,-0.82,0.929,0,0.138,0.51,0.202,0.542,0.137,0.39,0.161,0.476
53132,20100724,-110.51,31.59,0.179,0.76,0.06,0.595,0.117,0.31,0.101,0.327,0.192,1.13,0,0.94,0.184,0.48,0.006,0.458,0.046,-0.86,1,0,0.148,0.61,0.06,0.542,0.144,0.47,0.06,0.476
53132,20100725,-110.51,31.59,0.175,0.7,0,0.512,0.122,0.35,0,0.321,0.195,1.11,0,0.946,0.183,0.43,0,0.375,0.046,-0.84,1,0,0.149,0.59,0,0.458,0.144,0.44,0,0.393
53132,20100726,-110.51,31.59,0.161,0.54,0,0.369,0.117,0.22,0.006,0.179,0.193,0.97,0,0.804,0.177,0.32,0,0.232,0.046,-0.83,1,0,0.139,0.44,0,0.315,0.139,0.31,0,0.25
53132,20100727,-110.51,31.59,0.148,0.4,0,0.226,0.111,0.09,0.119,0.036,0.188,0.81,0,0.661,0.172,0.23,0,0.089,0.046,-0.83,1,0,0.129,0.3,0,0.173,0.133,0.19,0.012,0.107
53132,20100728,-110.51,31.59,0.143,0.35,0,0.167,0.105,-0.03,0.262,0,0.186,0.71,0,0.613,0.172,0.21,0,0.012,0.046,-0.84,1,0,0.124,0.22,0,0.03,0.131,0.14,0.012,0
53132,20100729,-110.51,31.59,0.147,0.4,0,0.226,0.101,-0.12,0.399,0,0.186,0.65,0,0.554,0.174,0.2,0,0.012,0.046,-0.86,1,0,0.124,0.21,0,0,0.131,0.14,0.012,0
53132,20100730,-110.51,31.59,0.157,0.55,0,0.369,0.101,-0.14,0.399,0.012,0.192,0.7,0,0.5,0.184,0.32,0,0.095,0.059,-0.68,0.923,0.077,0.129,0.29,0,0.089,0.138,0.3,0.012,0.083